Purchase, NY

7:51 AM EDT on August 27, 2016 (GMT -0400)
Westchester County

Weather History for KHPN - May, 2014

Change the Weather History Date:

Friday, May 30, 2014

  Actual Average Record
Temperature  
Mean Temperature 62 °F -  
Max Temperature 75 °F 68 °F 92 °F (1986)
Min Temperature 50 °F 50 °F 41 °F (2004)
Degree Days  
Heating Degree Days 4    
Growing Degree Days 12 (Base 50)    
Moisture  
Dew Point 48 °F    
Average Humidity 63    
Maximum Humidity 84    
Minimum Humidity 33    
Precipitation  
Precipitation 0.03 in - - ()
Sea Level Pressure  
Sea Level Pressure 30.06 in    
Wind  
Wind Speed 4 mph (NNW)    
Max Wind Speed 21 mph    
Max Gust Speed 33 mph    
Visibility 10 miles    
Events Rain    
Averages and records for this station are not official NWS values.
T = Trace of Precipitation, MM = Missing Value Source: NWS Daily Summary

Daily Weather History Graph

Daily Weather History Graph

Search for Another Location

Airport or City:

Trip Planner

Search our weather history database for the weather conditions in past years. The results will help you decide how hot, cold, wet, or windy it might be!

Date:

Astronomy

May. 30, 2014 Rise Set
Actual Time 5:25 AM EDT 8:19 PM EDT
Civil Twilight 4:53 AM EDT 8:52 PM EDT
Nautical Twilight 4:11 AM EDT 9:33 PM EDT
Astronomical Twilight 3:23 AM EDT 10:21 PM EDT
Moon 7:08 AM EDT (5/30) 9:53 PM EDT (5/30)
Length of Visible Light 15h 59m
Length of Day
14h 53m
Waxing Crescent, 4% of the Moon is Illuminated
May 30
Waxing Crescent
Jun 5
First Quarter
Jun 13
Full
Jun 19
Last Quarter
Jun 27
New

Hourly Weather History & Observations

Time (EDT) Temp. Dew Point Humidity Pressure Visibility Wind Dir Wind Speed Gust Speed Precip Events Conditions
12:56 AM 53.1 °F 44.1 °F 71% 30.14 in 10.0 mi Calm Calm - N/A   Overcast
1:56 AM 53.1 °F 43.0 °F 69% 30.12 in 10.0 mi Calm Calm - N/A   Mostly Cloudy
2:56 AM 52.0 °F 43.0 °F 71% 30.11 in 10.0 mi Calm Calm - N/A   Overcast
3:56 AM 52.0 °F 45.0 °F 77% 30.11 in 10.0 mi Calm Calm - N/A   Mostly Cloudy
4:56 AM 52.0 °F 44.1 °F 74% 30.09 in 10.0 mi Calm Calm - N/A   Mostly Cloudy
5:56 AM 50.0 °F 44.1 °F 80% 30.09 in 10.0 mi Calm Calm - N/A   Mostly Cloudy
6:56 AM 52.0 °F 46.9 °F 83% 30.09 in 10.0 mi Calm Calm - N/A   Mostly Cloudy
7:56 AM 55.9 °F 43.0 °F 62% 30.10 in 10.0 mi Calm Calm - N/A   Mostly Cloudy
8:56 AM 60.1 °F 46.9 °F 62% 30.10 in 10.0 mi NNW 3.5 mph - N/A   Mostly Cloudy
9:56 AM 64.0 °F 48.9 °F 58% 30.08 in 10.0 mi Calm Calm - N/A   Partly Cloudy
10:56 AM 68.0 °F 52.0 °F 56% 30.07 in 10.0 mi North 9.2 mph - N/A   Mostly Cloudy
11:56 AM 68.0 °F 50.0 °F 52% 30.06 in 10.0 mi Variable 4.6 mph - N/A   Mostly Cloudy
12:56 PM 70.0 °F 48.9 °F 47% 30.05 in 10.0 mi NW 8.1 mph - N/A   Mostly Cloudy
1:56 PM 70.0 °F 46.9 °F 44% 30.04 in 10.0 mi West 6.9 mph - N/A   Mostly Cloudy
2:56 PM 73.0 °F 48.9 °F 42% 30.02 in 10.0 mi NW 11.5 mph 16.1 mph N/A   Mostly Cloudy
3:56 PM 73.9 °F 46.0 °F 37% 30.01 in 10.0 mi Variable 6.9 mph - N/A   Scattered Clouds
4:56 PM 73.4 °F 42.8 °F 33% 30.00 in 10.0 mi WNW 6.9 mph - N/A   Scattered Clouds
5:56 PM 73.9 °F 46.0 °F 37% 29.97 in 10.0 mi WNW 6.9 mph - N/A   Mostly Cloudy
6:47 PM 62.6 °F 51.8 °F 68% 30.02 in 3.0 mi North 20.7 mph 33.4 mph 0.02 in Rain Rain
6:56 PM 62.1 °F 53.1 °F 72% 30.03 in 6.0 mi North 10.4 mph 20.7 mph 0.03 in Rain Light Rain
7:56 PM 62.1 °F 53.1 °F 72% 30.01 in 10.0 mi North 8.1 mph 17.3 mph 0.00 in   Overcast
8:56 PM 62.1 °F 53.1 °F 72% 30.04 in 10.0 mi North 15.0 mph - N/A   Mostly Cloudy
9:56 PM 60.1 °F 52.0 °F 75% 30.05 in 10.0 mi North 10.4 mph - N/A   Mostly Cloudy
10:56 PM 57.9 °F 52.0 °F 81% 30.06 in 10.0 mi NNW 5.8 mph - N/A   Mostly Cloudy
11:56 PM 55.9 °F 51.1 °F 84% 30.07 in 10.0 mi NW 12.7 mph - N/A   Clear